Year,Month,Day,Hour,Minute,Value (Times are PST for temperature in C)
2017,01,04,00,00,-7.10
2017,01,04,00,01,-7.10
2017,01,04,00,02,-7.10
2017,01,04,00,03,-7.10
2017,01,04,00,04,-7.10
2017,01,04,00,05,-7.10
2017,01,04,00,06,-7.10
2017,01,04,00,07,-7.10
2017,01,04,00,08,-7.00
2017,01,04,00,09,-7.00
2017,01,04,00,10,-7.00
2017,01,04,00,11,-7.00
2017,01,04,00,12,-6.90
2017,01,04,00,13,-6.90
2017,01,04,00,14,-6.90
2017,01,04,00,15,-6.90
2017,01,04,00,16,-6.80
2017,01,04,00,17,-6.80
2017,01,04,00,18,-6.70
2017,01,04,00,19,-6.70
2017,01,04,00,20,-6.80
2017,01,04,00,21,-6.80
2017,01,04,00,22,-6.80
2017,01,04,00,23,-6.80
2017,01,04,00,24,-6.90
2017,01,04,00,25,-6.90
2017,01,04,00,26,-7.00
2017,01,04,00,27,-7.10
2017,01,04,00,28,-7.10
2017,01,04,00,29,-7.20
2017,01,04,00,30,-7.20
2017,01,04,00,31,-7.20
2017,01,04,00,32,-7.10
2017,01,04,00,33,-7.10
2017,01,04,00,34,-7.10
2017,01,04,00,35,-7.10
2017,01,04,00,36,-7.00
2017,01,04,00,37,-7.00
2017,01,04,00,38,-6.90
2017,01,04,00,39,-6.90
2017,01,04,00,40,-6.90
2017,01,04,00,41,-6.80
2017,01,04,00,42,-6.80
2017,01,04,00,43,-6.80
2017,01,04,00,44,-6.90
2017,01,04,00,45,-6.90
2017,01,04,00,46,-6.90
2017,01,04,00,47,-6.90
2017,01,04,00,48,-6.90
2017,01,04,00,49,-6.90
2017,01,04,00,50,-6.90
2017,01,04,00,51,-6.90
2017,01,04,00,52,-6.80
2017,01,04,00,53,-6.80
2017,01,04,00,54,-6.70
2017,01,04,00,55,-6.60
2017,01,04,00,56,-6.50
2017,01,04,00,57,-6.40
2017,01,04,00,58,-6.30
2017,01,04,00,59,-6.20
2017,01,04,01,00,-6.00
2017,01,04,01,01,-5.90
2017,01,04,01,02,-5.80
2017,01,04,01,03,-5.70
2017,01,04,01,04,-5.60
2017,01,04,01,05,-5.50
2017,01,04,01,06,-5.40
2017,01,04,01,07,-5.30
2017,01,04,01,08,-5.30
2017,01,04,01,09,-5.30
2017,01,04,01,10,-5.20
2017,01,04,01,11,-5.20
2017,01,04,01,12,-5.10
2017,01,04,01,13,-5.10
2017,01,04,01,14,-5.10
2017,01,04,01,15,-5.00
2017,01,04,01,16,-5.00
2017,01,04,01,17,-4.90
2017,01,04,01,18,-4.90
2017,01,04,01,19,-4.80
2017,01,04,01,20,-4.80
2017,01,04,01,21,-4.70
2017,01,04,01,22,-4.70
2017,01,04,01,23,-4.70
2017,01,04,01,24,-4.70
2017,01,04,01,25,-4.60
2017,01,04,01,26,-4.60
2017,01,04,01,27,-4.60
2017,01,04,01,28,-4.50
2017,01,04,01,29,-4.50
2017,01,04,01,30,-4.50
2017,01,04,01,31,-4.40
2017,01,04,01,32,-4.40
2017,01,04,01,33,-4.40
2017,01,04,01,34,-4.40
2017,01,04,01,35,-4.40
2017,01,04,01,36,-4.40
2017,01,04,01,37,-4.40
2017,01,04,01,38,-4.50
2017,01,04,01,39,-4.50
2017,01,04,01,40,-4.60
2017,01,04,01,41,-4.70
2017,01,04,01,42,-4.80
2017,01,04,01,43,-4.90
2017,01,04,01,44,-4.90
2017,01,04,01,45,-5.00
2017,01,04,01,46,-5.00
2017,01,04,01,47,-5.10
2017,01,04,01,48,-5.10
2017,01,04,01,49,-5.10
2017,01,04,01,50,-5.10
2017,01,04,01,51,-5.10
2017,01,04,01,52,-5.10
2017,01,04,01,53,-5.10
2017,01,04,01,54,-5.10
2017,01,04,01,55,-5.10
2017,01,04,01,56,-5.10
2017,01,04,01,57,-5.10
2017,01,04,01,58,-5.10
2017,01,04,01,59,-5.10
2017,01,04,02,00,-5.10
2017,01,04,02,01,-5.20
2017,01,04,02,02,-5.20
2017,01,04,02,03,-5.20
2017,01,04,02,04,-5.20
2017,01,04,02,05,-5.20
2017,01,04,02,06,-5.10
2017,01,04,02,07,-5.10
2017,01,04,02,08,-5.20
2017,01,04,02,09,-5.20
2017,01,04,02,10,-5.20
2017,01,04,02,11,-5.20
2017,01,04,02,12,-5.20
2017,01,04,02,13,-5.20
2017,01,04,02,14,-5.30
2017,01,04,02,15,-5.30
2017,01,04,02,16,-5.40
2017,01,04,02,17,-5.50
2017,01,04,02,18,-5.60
2017,01,04,02,19,-5.70
2017,01,04,02,20,-5.80
2017,01,04,02,21,-5.80
2017,01,04,02,22,-5.90
2017,01,04,02,23,-5.90
2017,01,04,02,24,-6.00
2017,01,04,02,25,-6.10
2017,01,04,02,26,-6.20
2017,01,04,02,27,-6.20
2017,01,04,02,28,-6.30
2017,01,04,02,29,-6.40
2017,01,04,02,30,-6.50
2017,01,04,02,31,-6.50
2017,01,04,02,32,-6.60
2017,01,04,02,33,-6.60
2017,01,04,02,34,-6.70
2017,01,04,02,35,-6.70
2017,01,04,02,36,-6.80
2017,01,04,02,37,-6.80
2017,01,04,02,38,-6.80
2017,01,04,02,39,-6.90
2017,01,04,02,40,-6.90
2017,01,04,02,41,-6.90
2017,01,04,02,42,-6.90
2017,01,04,02,43,-7.00
2017,01,04,02,44,-7.00
2017,01,04,02,45,-7.10
2017,01,04,02,46,-7.10
2017,01,04,02,47,-7.10
2017,01,04,02,48,-7.10
2017,01,04,02,49,-7.10
2017,01,04,02,50,-7.20
2017,01,04,02,51,-7.20
2017,01,04,02,52,-7.20
2017,01,04,02,53,-7.20
2017,01,04,02,54,-7.20
2017,01,04,02,55,-7.30
2017,01,04,02,56,-7.30
2017,01,04,02,57,-7.30
2017,01,04,02,58,-7.30
2017,01,04,02,59,-7.30
2017,01,04,03,00,-7.30
2017,01,04,03,01,-7.30
2017,01,04,03,02,-7.20
2017,01,04,03,03,-7.20
2017,01,04,03,04,-7.20
2017,01,04,03,05,-7.20
2017,01,04,03,06,-7.20
2017,01,04,03,07,-7.10
2017,01,04,03,08,-7.10
2017,01,04,03,09,-7.10
2017,01,04,03,10,-7.20
2017,01,04,03,11,-7.20
2017,01,04,03,12,-7.20
2017,01,04,03,13,-7.20
2017,01,04,03,14,-7.30
2017,01,04,03,15,-7.30
2017,01,04,03,16,-7.30
2017,01,04,03,17,-7.30
2017,01,04,03,18,-7.30
2017,01,04,03,19,-7.30
2017,01,04,03,20,-7.30
2017,01,04,03,21,-7.30
2017,01,04,03,22,-7.30
2017,01,04,03,23,-7.30
2017,01,04,03,24,-7.30
2017,01,04,03,25,-7.30
2017,01,04,03,26,-7.30
2017,01,04,03,27,-7.30
2017,01,04,03,28,-7.30
2017,01,04,03,29,-7.30
2017,01,04,03,30,-7.30
2017,01,04,03,31,-7.30
2017,01,04,03,32,-7.30
2017,01,04,03,33,-7.30
2017,01,04,03,34,-7.20
2017,01,04,03,35,-7.30
2017,01,04,03,36,-7.30
2017,01,04,03,37,-7.30
2017,01,04,03,38,-7.30
2017,01,04,03,39,-7.30
2017,01,04,03,40,-7.40
2017,01,04,03,41,-7.40
2017,01,04,03,42,-7.40
2017,01,04,03,43,-7.40
2017,01,04,03,44,-7.50
2017,01,04,03,45,-7.50
2017,01,04,03,46,-7.50
2017,01,04,03,47,-7.50
2017,01,04,03,48,-7.50
2017,01,04,03,49,-7.50
2017,01,04,03,50,-7.50
2017,01,04,03,51,-7.50
2017,01,04,03,52,-7.50
2017,01,04,03,53,-7.60
2017,01,04,03,54,-7.50
2017,01,04,03,55,-7.50
2017,01,04,03,56,-7.50
2017,01,04,03,57,-7.40
2017,01,04,03,58,-7.40
2017,01,04,03,59,-7.40
2017,01,04,04,00,-7.50
2017,01,04,04,01,-7.50
2017,01,04,04,02,-7.50
2017,01,04,04,03,-7.50
2017,01,04,04,04,-7.60
2017,01,04,04,05,-7.60
2017,01,04,04,06,-7.60
2017,01,04,04,07,-7.60
2017,01,04,04,08,-7.60
2017,01,04,04,09,-7.60
2017,01,04,04,10,-7.60
2017,01,04,04,11,-7.60
2017,01,04,04,12,-7.60
2017,01,04,04,13,-7.60
2017,01,04,04,14,-7.60
2017,01,04,04,15,-7.60
2017,01,04,04,16,-7.60
2017,01,04,04,17,-7.50
2017,01,04,04,18,-7.50
2017,01,04,04,19,-7.50
2017,01,04,04,20,-7.50
2017,01,04,04,21,-7.50
2017,01,04,04,22,-7.50
2017,01,04,04,23,-7.40
2017,01,04,04,24,-7.40
2017,01,04,04,25,-7.40
2017,01,04,04,26,-7.40
2017,01,04,04,27,-7.40
2017,01,04,04,28,-7.40
2017,01,04,04,29,-7.40
2017,01,04,04,30,-7.40
2017,01,04,04,31,-7.40
2017,01,04,04,32,-7.40
2017,01,04,04,33,-7.40
2017,01,04,04,34,-7.40
2017,01,04,04,35,-7.40
2017,01,04,04,36,-7.40
2017,01,04,04,37,-7.40
2017,01,04,04,38,-7.30
2017,01,04,04,39,-7.30
2017,01,04,04,40,-7.30
2017,01,04,04,41,-7.30
2017,01,04,04,42,-7.30
2017,01,04,04,43,-7.30
2017,01,04,04,44,-7.30
2017,01,04,04,45,-7.30
2017,01,04,04,46,-7.30
2017,01,04,04,47,-7.30
2017,01,04,04,48,-7.30
2017,01,04,04,49,-7.30
2017,01,04,04,50,-7.30
2017,01,04,04,51,-7.30
2017,01,04,04,52,-7.30
2017,01,04,04,53,-7.30
2017,01,04,04,54,-7.30
2017,01,04,04,55,-7.30
2017,01,04,04,56,-7.20
2017,01,04,04,57,-7.20
2017,01,04,04,58,-7.20
2017,01,04,04,59,-7.20
2017,01,04,05,00,-7.10
2017,01,04,05,01,-7.10
2017,01,04,05,02,-7.10
2017,01,04,05,03,-7.10
2017,01,04,05,04,-7.00
2017,01,04,05,05,-7.00
2017,01,04,05,06,-7.00
2017,01,04,05,07,-6.90
2017,01,04,05,08,-6.90
2017,01,04,05,09,-6.90
2017,01,04,05,10,-6.90
2017,01,04,05,11,-6.90
2017,01,04,05,12,-6.90
2017,01,04,05,13,-6.80
2017,01,04,05,14,-6.80
2017,01,04,05,15,-6.80
2017,01,04,05,16,-6.80
2017,01,04,05,17,-6.80
2017,01,04,05,18,-6.80
2017,01,04,05,19,-6.90
2017,01,04,05,20,-6.90
2017,01,04,05,21,-6.90
2017,01,04,05,22,-6.90
2017,01,04,05,23,-6.90
2017,01,04,05,24,-6.90
2017,01,04,05,25,-6.90
2017,01,04,05,26,-6.90
2017,01,04,05,27,-6.90
2017,01,04,05,28,-7.00
2017,01,04,05,29,-7.00
2017,01,04,05,30,-7.00
2017,01,04,05,31,-7.00
2017,01,04,05,32,-7.00
2017,01,04,05,33,-7.00
2017,01,04,05,34,-7.00
2017,01,04,05,35,-7.00
2017,01,04,05,36,-7.00
2017,01,04,05,37,-7.00
2017,01,04,05,38,-7.00
2017,01,04,05,39,-7.00
2017,01,04,05,40,-7.10
2017,01,04,05,41,-7.10
2017,01,04,05,42,-7.10
2017,01,04,05,43,-7.10
2017,01,04,05,44,-7.00
2017,01,04,05,45,-7.00
2017,01,04,05,46,-7.00
2017,01,04,05,47,-6.90
2017,01,04,05,48,-6.90
2017,01,04,05,49,-6.90
2017,01,04,05,50,-6.80
2017,01,04,05,51,-6.80
2017,01,04,05,52,-6.70
2017,01,04,05,53,-6.70
2017,01,04,05,54,-6.70
2017,01,04,05,55,-6.70
2017,01,04,05,56,-6.70
2017,01,04,05,57,-6.60
2017,01,04,05,58,-6.60
2017,01,04,05,59,-6.60
2017,01,04,06,00,-6.50
2017,01,04,06,01,-6.40
2017,01,04,06,02,-6.40
2017,01,04,06,03,-6.40
2017,01,04,06,04,-6.30
2017,01,04,06,05,-6.30
2017,01,04,06,06,-6.30
2017,01,04,06,07,-6.30
2017,01,04,06,08,-6.30
2017,01,04,06,09,-6.30
2017,01,04,06,10,-6.40
2017,01,04,06,11,-6.40
2017,01,04,06,12,-6.40
2017,01,04,06,13,-6.50
2017,01,04,06,14,-6.50
2017,01,04,06,15,-6.50
2017,01,04,06,16,-6.50
2017,01,04,06,17,-6.60
2017,01,04,06,18,-6.60
2017,01,04,06,19,-6.60
2017,01,04,06,20,-6.60
2017,01,04,06,21,-6.70
2017,01,04,06,22,-6.70
2017,01,04,06,23,-6.70
2017,01,04,06,24,-6.80
2017,01,04,06,25,-6.80
2017,01,04,06,26,-6.90
2017,01,04,06,27,-6.90
2017,01,04,06,28,-7.00
2017,01,04,06,29,-7.00
2017,01,04,06,30,-7.10
2017,01,04,06,31,-7.10
2017,01,04,06,32,-7.10
2017,01,04,06,33,-7.10
2017,01,04,06,34,-7.10
2017,01,04,06,35,-7.10
2017,01,04,06,36,-7.10
2017,01,04,06,37,-7.10
2017,01,04,06,38,-7.10
2017,01,04,06,39,-7.00
2017,01,04,06,40,-7.00
2017,01,04,06,41,-7.00
2017,01,04,06,42,-6.90
2017,01,04,06,43,-6.90
2017,01,04,06,44,-6.90
2017,01,04,06,45,-6.80
2017,01,04,06,46,-6.80
2017,01,04,06,47,-6.70
2017,01,04,06,48,-6.70
2017,01,04,06,49,-6.60
2017,01,04,06,50,-6.50
2017,01,04,06,51,-6.50
2017,01,04,06,52,-6.50
2017,01,04,06,53,-6.50
2017,01,04,06,54,-6.50
2017,01,04,06,55,-6.50
2017,01,04,06,56,-6.50
2017,01,04,06,57,-6.40
2017,01,04,06,58,-6.40
2017,01,04,06,59,-6.40
2017,01,04,07,00,-6.40
2017,01,04,07,01,-6.40
2017,01,04,07,02,-6.40
2017,01,04,07,03,-6.40
2017,01,04,07,04,-6.40
2017,01,04,07,05,-6.40
2017,01,04,07,06,-6.40
2017,01,04,07,07,-6.30
2017,01,04,07,08,-6.30
2017,01,04,07,09,-6.30
2017,01,04,07,10,-6.30
2017,01,04,07,11,-6.30
2017,01,04,07,12,-6.30
2017,01,04,07,13,-6.30
2017,01,04,07,14,-6.40
2017,01,04,07,15,-6.30
2017,01,04,07,16,-6.30
2017,01,04,07,17,-6.30
2017,01,04,07,18,-6.30
2017,01,04,07,19,-6.30
2017,01,04,07,20,-6.40
2017,01,04,07,21,-6.40
2017,01,04,07,22,-6.40
2017,01,04,07,23,-6.40
2017,01,04,07,24,-6.40
2017,01,04,07,25,-6.40
2017,01,04,07,26,-6.40
2017,01,04,07,27,-6.40
2017,01,04,07,28,-6.40
2017,01,04,07,29,-6.40
2017,01,04,07,30,-6.40
2017,01,04,07,31,-6.40
2017,01,04,07,32,-6.40
2017,01,04,07,33,-6.30
2017,01,04,07,34,-6.30
2017,01,04,07,35,-6.30
2017,01,04,07,36,-6.20
2017,01,04,07,37,-6.20
2017,01,04,07,38,-6.20
2017,01,04,07,39,-6.30
2017,01,04,07,40,-6.30
2017,01,04,07,41,-6.30
2017,01,04,07,42,-6.30
2017,01,04,07,43,-6.30
2017,01,04,07,44,-6.30
2017,01,04,07,45,-6.30
2017,01,04,07,46,-6.30
2017,01,04,07,47,-6.30
2017,01,04,07,48,-6.30
2017,01,04,07,49,-6.30
2017,01,04,07,50,-6.30
2017,01,04,07,51,-6.30
2017,01,04,07,52,-6.30
2017,01,04,07,53,-6.30
2017,01,04,07,54,-6.30
2017,01,04,07,55,-6.20
2017,01,04,07,56,-6.20
2017,01,04,07,57,-6.20
2017,01,04,07,58,-6.10
2017,01,04,07,59,-6.10
2017,01,04,08,00,-6.00
2017,01,04,08,01,-6.00
2017,01,04,08,02,-6.00
2017,01,04,08,03,-5.90
2017,01,04,08,04,-5.90
2017,01,04,08,05,-5.90
2017,01,04,08,06,-5.90
2017,01,04,08,07,-5.90
2017,01,04,08,08,-5.90
2017,01,04,08,09,-5.90
2017,01,04,08,10,-5.90
2017,01,04,08,11,-6.00
2017,01,04,08,12,-6.00
2017,01,04,08,13,-6.10
2017,01,04,08,14,-6.10
2017,01,04,08,15,-6.10
2017,01,04,08,16,-6.20
2017,01,04,08,17,-6.20
2017,01,04,08,18,-6.20
2017,01,04,08,19,-6.20
2017,01,04,08,20,-6.20
2017,01,04,08,21,-6.20
2017,01,04,08,22,-6.20
2017,01,04,08,23,-6.30
2017,01,04,08,24,-6.30
2017,01,04,08,25,-6.30
2017,01,04,08,26,-6.30
2017,01,04,08,27,-6.30
2017,01,04,08,28,-6.30
2017,01,04,08,29,-6.30
2017,01,04,08,30,-6.30
2017,01,04,08,31,-6.30
2017,01,04,08,32,-6.30
2017,01,04,08,33,-6.40
2017,01,04,08,34,-6.40
2017,01,04,08,35,-6.50
2017,01,04,08,36,-6.50
2017,01,04,08,37,-6.50
2017,01,04,08,38,-6.50
2017,01,04,08,39,-6.50
2017,01,04,08,40,-6.50
2017,01,04,08,41,-6.50
2017,01,04,08,42,-6.50
2017,01,04,08,43,-6.50
2017,01,04,08,44,-6.50
2017,01,04,08,45,-6.50
2017,01,04,08,46,-6.50
2017,01,04,08,47,-6.40
2017,01,04,08,48,-6.40
2017,01,04,08,49,-6.40
2017,01,04,08,50,-6.30
2017,01,04,08,51,-6.20
2017,01,04,08,52,-6.20
2017,01,04,08,53,-6.10
2017,01,04,08,54,-6.10
2017,01,04,08,55,-6.10
2017,01,04,08,56,-6.00
2017,01,04,08,57,-6.10
2017,01,04,08,58,-6.10
2017,01,04,08,59,-6.00
2017,01,04,09,00,-6.00
2017,01,04,09,01,-6.00
2017,01,04,09,02,-5.90
2017,01,04,09,03,-5.90
2017,01,04,09,04,-5.90
2017,01,04,09,05,-5.90
2017,01,04,09,06,-5.80
2017,01,04,09,07,-5.80
2017,01,04,09,08,-5.80
2017,01,04,09,09,-5.80
2017,01,04,09,10,-5.80
2017,01,04,09,11,-5.80
2017,01,04,09,12,-5.80
2017,01,04,09,13,-5.70
2017,01,04,09,14,-5.70
2017,01,04,09,15,-5.70
2017,01,04,09,16,-5.70
2017,01,04,09,17,-5.70
2017,01,04,09,18,-5.70
2017,01,04,09,19,-5.70
2017,01,04,09,20,-5.60
2017,01,04,09,21,-5.60
2017,01,04,09,22,-5.50
2017,01,04,09,23,-5.50
2017,01,04,09,24,-5.40
2017,01,04,09,25,-5.30
2017,01,04,09,26,-5.30
2017,01,04,09,27,-5.20
2017,01,04,09,28,-5.20
2017,01,04,09,29,-5.10
2017,01,04,09,30,-5.00
2017,01,04,09,31,-4.90
2017,01,04,09,32,-4.80
2017,01,04,09,33,-4.70
2017,01,04,09,34,-4.70
2017,01,04,09,35,-4.60
2017,01,04,09,36,-4.50
2017,01,04,09,37,-4.40
2017,01,04,09,38,-4.40
2017,01,04,09,39,-4.30
2017,01,04,09,40,-4.20
2017,01,04,09,41,-4.20
2017,01,04,09,42,-4.10
2017,01,04,09,43,-4.10
2017,01,04,09,44,-4.00
2017,01,04,09,45,-3.90
2017,01,04,09,46,-3.90
2017,01,04,09,47,-3.80
2017,01,04,09,48,-3.80
2017,01,04,09,49,-3.70
2017,01,04,09,50,-3.70
2017,01,04,09,51,-3.60
2017,01,04,09,52,-3.60
2017,01,04,09,53,-3.50
2017,01,04,09,54,-3.50
2017,01,04,09,55,-3.40
2017,01,04,09,56,-3.30
2017,01,04,09,57,-3.30
2017,01,04,09,58,-3.20
2017,01,04,09,59,-3.10
2017,01,04,10,00,-3.10
2017,01,04,10,01,-3.00
2017,01,04,10,02,-2.90
2017,01,04,10,03,-2.90
2017,01,04,10,04,-2.80
2017,01,04,10,05,-2.80
2017,01,04,10,06,-2.70
2017,01,04,10,07,-2.70
2017,01,04,10,08,-2.70
2017,01,04,10,09,-2.60
2017,01,04,10,10,-2.60
2017,01,04,10,11,-2.50
2017,01,04,10,12,-2.50
2017,01,04,10,13,-2.50
2017,01,04,10,14,-2.40
2017,01,04,10,15,-2.30
2017,01,04,10,16,-2.30
2017,01,04,10,17,-2.30
2017,01,04,10,18,-2.20
2017,01,04,10,19,-2.10
2017,01,04,10,20,-2.10
2017,01,04,10,21,-2.00
2017,01,04,10,22,-1.90
2017,01,04,10,23,-1.90
2017,01,04,10,24,-1.80
2017,01,04,10,25,-1.80
2017,01,04,10,26,-1.70
2017,01,04,10,27,-1.70
2017,01,04,10,28,-1.60
2017,01,04,10,29,-1.50
2017,01,04,10,30,-1.50
2017,01,04,10,31,-1.40
2017,01,04,10,32,-1.30
2017,01,04,10,33,-1.20
2017,01,04,10,34,-1.20
2017,01,04,10,35,-1.10
2017,01,04,10,36,-1.10
2017,01,04,10,37,-1.00
2017,01,04,10,38,-0.90
2017,01,04,10,39,-0.80
2017,01,04,10,40,-0.80
2017,01,04,10,41,-0.70
2017,01,04,10,42,-0.60
2017,01,04,10,43,-0.50
2017,01,04,10,44,-0.50
2017,01,04,10,45,-0.40
2017,01,04,10,46,-0.30
2017,01,04,10,47,-0.20
2017,01,04,10,48,-0.20
2017,01,04,10,49,-0.10
2017,01,04,10,50,0.00
2017,01,04,10,51,0.00
2017,01,04,10,52,0.10
2017,01,04,10,53,0.10
2017,01,04,10,54,0.20
2017,01,04,10,55,0.20
2017,01,04,10,56,0.30
2017,01,04,10,57,0.30
2017,01,04,10,58,0.40
2017,01,04,10,59,0.40
2017,01,04,11,00,0.50
2017,01,04,11,01,0.60
2017,01,04,11,02,0.60
2017,01,04,11,03,0.60
2017,01,04,11,04,0.70
2017,01,04,11,05,0.70
2017,01,04,11,06,0.80
2017,01,04,11,07,0.80
2017,01,04,11,08,0.90
2017,01,04,11,09,0.90
2017,01,04,11,10,1.00
2017,01,04,11,11,1.00
2017,01,04,11,12,1.10
2017,01,04,11,13,1.10
2017,01,04,11,14,1.10
2017,01,04,11,15,1.20
2017,01,04,11,16,1.20
2017,01,04,11,17,1.20
2017,01,04,11,18,1.30
2017,01,04,11,19,1.30
2017,01,04,11,20,1.40
2017,01,04,11,21,1.40
2017,01,04,11,22,1.50
2017,01,04,11,23,1.50
2017,01,04,11,24,1.50
2017,01,04,11,25,1.50
2017,01,04,11,26,1.50
2017,01,04,11,27,1.60
2017,01,04,11,28,1.60
2017,01,04,11,29,1.60
2017,01,04,11,30,1.60
2017,01,04,11,31,1.60
2017,01,04,11,32,1.60
2017,01,04,11,33,1.60
2017,01,04,11,34,1.60
2017,01,04,11,35,1.70
2017,01,04,11,36,1.70
2017,01,04,11,37,1.70
2017,01,04,11,38,1.70
2017,01,04,11,39,1.70
2017,01,04,11,40,1.80
2017,01,04,11,41,1.80
2017,01,04,11,42,1.80
2017,01,04,11,43,1.80
2017,01,04,11,44,1.80
2017,01,04,11,45,1.80
2017,01,04,11,46,1.80
2017,01,04,11,47,1.80
2017,01,04,11,48,1.80
2017,01,04,11,49,1.80
2017,01,04,11,50,1.80
2017,01,04,11,51,1.80
2017,01,04,11,52,1.70
2017,01,04,11,53,1.70
2017,01,04,11,54,1.70
2017,01,04,11,55,1.70
2017,01,04,11,56,1.70
2017,01,04,11,57,1.80
2017,01,04,11,58,1.80
2017,01,04,11,59,1.80
2017,01,04,12,00,1.90
2017,01,04,12,01,1.90
2017,01,04,12,02,1.90
2017,01,04,12,03,1.90
2017,01,04,12,04,1.90
2017,01,04,12,05,1.90
2017,01,04,12,06,2.00
2017,01,04,12,07,2.00
2017,01,04,12,08,2.00
2017,01,04,12,09,2.00
2017,01,04,12,10,2.00
2017,01,04,12,11,2.10
2017,01,04,12,12,2.10
2017,01,04,12,13,2.10
2017,01,04,12,14,2.10
2017,01,04,12,15,2.10
2017,01,04,12,16,2.10
2017,01,04,12,17,2.20
2017,01,04,12,18,2.20
2017,01,04,12,19,2.20
2017,01,04,12,20,2.30
2017,01,04,12,21,2.30
2017,01,04,12,22,2.30
2017,01,04,12,23,2.30
2017,01,04,12,24,2.30
2017,01,04,12,25,2.30
2017,01,04,12,26,2.40
2017,01,04,12,27,2.40
2017,01,04,12,28,2.40
2017,01,04,12,29,2.40
2017,01,04,12,30,2.40
2017,01,04,12,31,2.40
2017,01,04,12,32,2.50
2017,01,04,12,33,2.40
2017,01,04,12,34,2.40
2017,01,04,12,35,2.50
2017,01,04,12,36,2.50
2017,01,04,12,37,2.50
2017,01,04,12,38,2.60
2017,01,04,12,39,2.60
2017,01,04,12,40,2.60
2017,01,04,12,41,2.60
2017,01,04,12,42,2.60
2017,01,04,12,43,2.60
2017,01,04,12,44,2.60
2017,01,04,12,45,2.60
2017,01,04,12,46,2.60
2017,01,04,12,47,2.60
2017,01,04,12,48,2.60
2017,01,04,12,49,2.60
2017,01,04,12,50,2.70
2017,01,04,12,51,2.70
2017,01,04,12,52,2.70
2017,01,04,12,53,2.70
2017,01,04,12,54,2.70
2017,01,04,12,55,2.70
2017,01,04,12,56,2.70
2017,01,04,12,57,2.70
2017,01,04,12,58,2.70
2017,01,04,12,59,2.70
2017,01,04,13,00,2.70
2017,01,04,13,01,2.70
2017,01,04,13,02,2.70
2017,01,04,13,03,2.80
2017,01,04,13,04,2.80
2017,01,04,13,05,2.80
2017,01,04,13,06,2.80
2017,01,04,13,07,2.80
2017,01,04,13,08,2.70
2017,01,04,13,09,2.70
2017,01,04,13,10,2.70
2017,01,04,13,11,2.70
2017,01,04,13,12,2.70
2017,01,04,13,13,2.70
2017,01,04,13,14,2.70
2017,01,04,13,15,2.70
2017,01,04,13,16,2.70
2017,01,04,13,17,2.70
2017,01,04,13,18,2.70
2017,01,04,13,19,2.70
2017,01,04,13,20,2.80
2017,01,04,13,21,2.80
2017,01,04,13,22,2.80
2017,01,04,13,23,2.80
2017,01,04,13,24,2.80
2017,01,04,13,25,2.80
2017,01,04,13,26,2.80
2017,01,04,13,27,2.90
2017,01,04,13,28,2.90
2017,01,04,13,29,2.90
2017,01,04,13,30,2.90
2017,01,04,13,31,3.00
2017,01,04,13,32,3.00
2017,01,04,13,33,3.00
2017,01,04,13,34,3.10
2017,01,04,13,35,3.10
2017,01,04,13,36,3.10
2017,01,04,13,37,3.10
2017,01,04,13,38,3.10
2017,01,04,13,39,3.10
2017,01,04,13,40,3.10
2017,01,04,13,41,3.10
2017,01,04,13,42,3.10
2017,01,04,13,43,3.10
2017,01,04,13,44,3.10
2017,01,04,13,45,3.10
2017,01,04,13,46,3.10
2017,01,04,13,47,3.10
2017,01,04,13,48,3.10
2017,01,04,13,49,3.10
2017,01,04,13,50,3.10
2017,01,04,13,51,3.10
2017,01,04,13,52,3.10
2017,01,04,13,53,3.20
2017,01,04,13,54,3.20
2017,01,04,13,55,3.20
2017,01,04,13,56,3.20
2017,01,04,13,57,3.20
2017,01,04,13,58,3.20
2017,01,04,13,59,3.20
2017,01,04,14,00,3.20
2017,01,04,14,01,3.20
2017,01,04,14,02,3.20
2017,01,04,14,03,3.20
2017,01,04,14,04,3.20
2017,01,04,14,05,3.30
2017,01,04,14,06,3.30
2017,01,04,14,07,3.30
2017,01,04,14,08,3.30
2017,01,04,14,09,3.30
2017,01,04,14,10,3.40
2017,01,04,14,11,3.40
2017,01,04,14,12,3.50
2017,01,04,14,13,3.60
2017,01,04,14,14,3.60
2017,01,04,14,15,3.70
2017,01,04,14,16,3.70
2017,01,04,14,17,3.80
2017,01,04,14,18,3.80
2017,01,04,14,19,3.80
2017,01,04,14,20,3.90
2017,01,04,14,21,3.90
2017,01,04,14,22,3.90
2017,01,04,14,23,4.00
2017,01,04,14,24,4.00
2017,01,04,14,25,4.10
2017,01,04,14,26,4.10
2017,01,04,14,27,4.10
2017,01,04,14,28,4.10
2017,01,04,14,29,4.10
2017,01,04,14,30,4.00
2017,01,04,14,31,4.00
2017,01,04,14,32,4.00
2017,01,04,14,33,4.00
2017,01,04,14,34,4.00
2017,01,04,14,35,3.90
2017,01,04,14,36,3.90
2017,01,04,14,37,3.90
2017,01,04,14,38,3.90
2017,01,04,14,39,3.90
2017,01,04,14,40,3.90
2017,01,04,14,41,3.90
2017,01,04,14,42,3.90
2017,01,04,14,43,3.90
2017,01,04,14,44,3.90
2017,01,04,14,45,3.90
2017,01,04,14,46,3.90
2017,01,04,14,47,3.90
2017,01,04,14,48,3.90
2017,01,04,14,49,3.90
2017,01,04,14,50,3.90
2017,01,04,14,51,3.90
2017,01,04,14,52,3.90
2017,01,04,14,53,3.90
2017,01,04,14,54,3.90
2017,01,04,14,55,3.80
2017,01,04,14,56,3.80
2017,01,04,14,57,3.80
2017,01,04,14,58,3.80
2017,01,04,14,59,3.80
2017,01,04,15,00,3.80
2017,01,04,15,01,3.80
2017,01,04,15,02,3.80
2017,01,04,15,03,3.80
2017,01,04,15,04,3.80
2017,01,04,15,05,3.80
2017,01,04,15,06,3.80
2017,01,04,15,07,3.80
2017,01,04,15,08,3.80
2017,01,04,15,09,3.80
2017,01,04,15,10,3.80
2017,01,04,15,11,3.80
2017,01,04,15,12,3.80
2017,01,04,15,13,3.70
2017,01,04,15,14,3.70
2017,01,04,15,15,3.70
2017,01,04,15,16,3.60
2017,01,04,15,17,3.60
2017,01,04,15,18,3.50
2017,01,04,15,19,3.50
2017,01,04,15,20,3.50
2017,01,04,15,21,3.40
2017,01,04,15,22,3.40
2017,01,04,15,23,3.40
2017,01,04,15,24,3.30
2017,01,04,15,25,3.30
2017,01,04,15,26,3.30
2017,01,04,15,27,3.30
2017,01,04,15,28,3.30
2017,01,04,15,29,3.30
2017,01,04,15,30,3.30
2017,01,04,15,31,3.30
2017,01,04,15,32,3.30
2017,01,04,15,33,3.30
2017,01,04,15,34,3.20
2017,01,04,15,35,3.20
2017,01,04,15,36,3.20
2017,01,04,15,37,3.20
2017,01,04,15,38,3.20
2017,01,04,15,39,3.20
2017,01,04,15,40,3.20
2017,01,04,15,41,3.20
2017,01,04,15,42,3.20
2017,01,04,15,43,3.20
2017,01,04,15,44,3.20
2017,01,04,15,45,3.20
2017,01,04,15,46,3.20
2017,01,04,15,47,3.20
2017,01,04,15,48,3.20
2017,01,04,15,49,3.10
2017,01,04,15,50,3.10
2017,01,04,15,51,3.10
2017,01,04,15,52,3.10
2017,01,04,15,53,3.10
2017,01,04,15,54,3.10
2017,01,04,15,55,3.00
2017,01,04,15,56,3.00
2017,01,04,15,57,3.00
2017,01,04,15,58,3.00
2017,01,04,15,59,3.00
2017,01,04,16,00,2.90
2017,01,04,16,01,2.90
2017,01,04,16,02,2.90
2017,01,04,16,03,2.90
2017,01,04,16,04,2.90
2017,01,04,16,05,2.90
2017,01,04,16,06,2.90
2017,01,04,16,07,2.90
2017,01,04,16,08,2.90
2017,01,04,16,09,2.80
2017,01,04,16,10,2.80
2017,01,04,16,11,2.80
2017,01,04,16,12,2.80
2017,01,04,16,13,2.70
2017,01,04,16,14,2.70
2017,01,04,16,15,2.50
2017,01,04,16,16,2.40
2017,01,04,16,17,2.30
2017,01,04,16,18,2.20
2017,01,04,16,19,2.00
2017,01,04,16,20,1.90
2017,01,04,16,21,1.80
2017,01,04,16,22,1.70
2017,01,04,16,23,1.60
2017,01,04,16,24,1.50
2017,01,04,16,25,1.40
2017,01,04,16,26,1.40
2017,01,04,16,27,1.30
2017,01,04,16,28,1.20
2017,01,04,16,29,1.10
2017,01,04,16,30,1.10
2017,01,04,16,31,1.00
2017,01,04,16,32,0.90
2017,01,04,16,33,0.80
2017,01,04,16,34,0.80
2017,01,04,16,35,0.70
2017,01,04,16,36,0.70
2017,01,04,16,37,0.60
2017,01,04,16,38,0.50
2017,01,04,16,39,0.50
2017,01,04,16,40,0.40
2017,01,04,16,41,0.30
2017,01,04,16,42,0.20
2017,01,04,16,43,0.20
2017,01,04,16,44,0.10
2017,01,04,16,45,0.00
2017,01,04,16,46,-0.10
2017,01,04,16,47,-0.10
2017,01,04,16,48,-0.20
2017,01,04,16,49,-0.20
2017,01,04,16,50,-0.30
2017,01,04,16,51,-0.30
2017,01,04,16,52,-0.40
2017,01,04,16,53,-0.40
2017,01,04,16,54,-0.50
2017,01,04,16,55,-0.50
2017,01,04,16,56,-0.60
2017,01,04,16,57,-0.60
2017,01,04,16,58,-0.60
2017,01,04,16,59,-0.60
2017,01,04,17,00,-0.60
2017,01,04,17,01,-0.60
2017,01,04,17,02,-0.70
2017,01,04,17,03,-0.70
2017,01,04,17,04,-0.70
2017,01,04,17,05,-0.70
2017,01,04,17,06,-0.70
2017,01,04,17,07,-0.70
2017,01,04,17,08,-0.80
2017,01,04,17,09,-0.80
2017,01,04,17,10,-0.80
2017,01,04,17,11,-0.90
2017,01,04,17,12,-0.90
2017,01,04,17,13,-1.00
2017,01,04,17,14,-1.00
2017,01,04,17,15,-1.10
2017,01,04,17,16,-1.10
2017,01,04,17,17,-1.20
2017,01,04,17,18,-1.20
2017,01,04,17,19,-1.20
2017,01,04,17,20,-1.20
2017,01,04,17,21,-1.20
2017,01,04,17,22,-1.20
2017,01,04,17,23,-1.20
2017,01,04,17,24,-1.30
2017,01,04,17,25,-1.30
2017,01,04,17,26,-1.30
2017,01,04,17,27,-1.30
2017,01,04,17,28,-1.30
2017,01,04,17,29,-1.30
2017,01,04,17,30,-1.30
2017,01,04,17,31,-1.30
2017,01,04,17,32,-1.40
2017,01,04,17,33,-1.40
2017,01,04,17,34,-1.50